Location: Kaitawa
(40.5000°S, 175.8833°E)
Time: 18:47:58
(UTC+00:00)

Daily predictions for brighter satellites

Satellite Brightness Start Highest point End
(mag) Time Altitude Azimuth Time Altitude Azimuth Time Altitude Azimuth
CZ-4C R/B 3.8 14:25:48 45° SE 14:25:48 45° SE 14:30:23 10° SE
SL-16 R/B 2.9 15:09:23 10° SSE 15:15:01 59° ESE 15:15:01 59° ESE
BREEZE-M R/B 4.4 15:21:32 40° NE 15:21:32 40° NE 15:25:19 10° ESE
ATLAS 3B R/B 3.1 15:27:12 54° NE 15:28:02 57° ENE 15:34:50 10° SE
Cosmos 2184 Rocket 4.1 15:24:41 10° S 15:31:09 72° E 15:31:45 67° ENE
Cosmos 1833 Rocket 3.2 15:32:22 55° E 15:32:22 55° E 15:37:37 10° SSE
Nadezhda 1 Rocket 4.2 15:45:11 50° NNE 15:46:56 73° E 15:53:25 10° S
OAO 2 Rocket 4.4 15:50:11 37° NE 15:50:11 37° NE 15:53:43 10° ENE
ARIANE 5 R/B 3.8 15:52:34 29° SSW 15:52:34 29° SSW 15:55:09 10° SSW
Cosmos 2154 Rocket 4.1 15:45:58 10° S 15:52:26 79° E 15:57:40 16° N
Cosmos 1697 Rocket 3.6 15:48:37 10° SSW 15:54:09 48° ESE 15:59:38 10° NE
Tiangong 0.7 15:58:28 18° E 15:58:28 18° E 15:59:26 10° E
Meteor 1-4 Rocket 4.2 16:00:06 32° SE 16:00:06 32° SE 16:02:32 10° SSE
Cosmos 1048 Rocket 4.2 15:57:17 10° SSW 16:02:30 70° ESE 16:07:42 10° NNE
Cosmos 44 Rocket 3.3 16:03:24 75° SE 16:03:28 75° ESE 16:08:08 10° NE
Cosmos 1980 Rocket 3.9 16:05:24 10° S 16:10:30 33° ESE 16:15:35 10° ENE
Cosmos 494 Rocket 3.9 16:06:17 10° SSW 16:11:34 90° WSW 16:16:49 10° NNE
NOSS 3-1 (C) 4.4 16:06:27 27° NNW 16:11:59 72° ENE 16:20:09 10° SE
CZ-4C R/B 4.0 16:10:58 26° WSW 16:12:19 27° SW 16:18:07 10° SSE
Cosmos 1610 Rocket 4.4 16:11:06 10° S 16:17:27 79° W 16:23:39 10° N
Cosmos 1125 Rocket 3.4 16:23:03 50° NNW 16:24:27 80° WSW 16:29:49 10° SSE
Meteor 2-6 Rocket 4.2 16:19:18 10° SSW 16:24:49 60° W 16:28:40 21° N
Cosmos 2074 Rocket 4.3 16:19:04 10° SSW 16:24:51 42° W 16:24:51 42° W
YAOGAN 11 4.0 16:22:37 10° SSE 16:27:13 88° WSW 16:28:35 45° NNW
Helios 1A 4.2 16:26:22 10° SSE 16:30:23 41° E 16:34:19 10° N
Cosmos 2084 3.6 16:33:20 47° NW 16:34:44 89° SW 16:39:40 10° SE
PSLV R/B 3.4 16:32:42 10° N 16:37:04 81° W 16:41:31 10° SSW
Cosmos 468 4.4 16:32:24 10° SSW 16:37:42 70° WNW 16:42:58 10° N
SJ-12 3.8 16:33:59 10° NNE 16:38:02 90° N 16:42:10 10° SSW
Cosmos 2360 4.1 16:36:50 10° SSW 16:42:31 64° WNW 16:48:08 10° N
CZ-2C R/B 2.8 16:38:05 10° SSE 16:43:37 82° ENE 16:49:11 10° N
Meteor 1-20 Rocket 4.5 16:38:39 10° N 16:44:27 75° E 16:50:23 10° SSE
USA 215 4.1 16:38:17 10° ESE 16:44:39 48° NE 16:50:58 10° NNW
Cosmos 1602 3.5 16:43:23 38° NNW 16:44:44 78° W 16:48:35 10° S
Cosmos 1500 3.0 16:45:42 50° NW 16:46:24 62° W 16:50:08 10° S
Meteor 1-27 Rocket 3.9 16:40:46 10° S 16:46:46 83° E 16:52:45 10° N
Cosmos 2366 rocket 4.2 16:44:29 10° S 16:50:44 72° E 16:56:52 10° NNE
ISS -2.4 16:50:22 23° N 16:51:52 34° NE 16:55:02 10° ESE
Cosmos 1766 Rocket 3.5 16:50:47 10° N 16:55:14 88° W 16:59:44 10° S
CZ-2C R/B 2.6 16:53:46 10° N 16:57:24 61° W 17:01:07 10° SSW
SL-16 R/B 3.7 16:53:59 10° SSW 16:58:39 23° WSW 17:00:06 21° W
Meteor 2-20 4.4 16:53:01 10° NNW 16:59:07 67° W 17:05:21 10° S
Cosmos 2082 Rocket 2.1 16:56:09 14° NNW 17:01:07 77° WSW 17:06:53 10° SSE
Cosmos 1544 2.9 17:00:37 20° NNW 17:02:50 63° W 17:06:20 10° S
Aureole 3 4.1 17:00:26 10° S 17:03:34 46° E 17:07:09 10° NNE
CZ-4B R/B 3.6 17:01:06 10° NNE 17:05:52 74° ESE 17:10:47 10° S
Cosmos 405 Rocket 2.8 17:04:58 10° SSW 17:08:49 53° W 17:12:32 10° N
SL-8 Rocket 4.0 17:04:16 10° SSW 17:10:35 69° W 17:16:51 10° N
Meteor 1-25 Rocket 4.1 17:05:57 10° NNW 17:11:31 75° W 17:17:11 10° S
Cosmos 1151 Rocket 3.6 17:10:48 10° SSW 17:14:53 37° W 17:18:56 10° NNW
NOSS 3-1 (A) 4.3 17:06:02 10° NNW 17:15:19 88° SW 17:23:29 10° SE
H-2A R/B 2.0 17:11:03 10° N 17:16:02 63° W 17:21:14 10° SSW
Cosmos 1833 Rocket 4.0 17:14:05 18° W 17:16:21 23° SW 17:20:47 10° S
Gbstr 26 Del rocket 3.9 17:10:08 10° WSW 17:16:49 57° NW 17:22:11 10° NNE
Cosmos 1378 3.1 17:13:52 10° SSW 17:17:29 55° W 17:21:03 10° N
ATLAS 3B R/B 3.5 17:14:30 18° W 17:19:02 34° SW 17:25:12 10° SSE
Cosmos 1515 Rocket 4.2 17:14:36 10° S 17:19:04 60° E 17:23:25 10° NNE
Meteor 2-20 Rocket 4.5 17:15:36 10° NNW 17:21:39 63° W 17:27:51 10° S
ATLAS 5 CENTAUR R/B 4.2 17:19:21 10° NNE 17:21:53 12° NE 17:25:31 10° ENE
COSMOS 2406 3.6 17:17:04 13° NW 17:22:00 46° WSW 17:27:32 10° SSE
CZ-2D R/B 3.5 17:22:33 10° NNE 17:26:20 71° ESE 17:30:09 10° S
SOZ 4.5 17:24:57 10° WSW 17:28:13 60° NW 17:30:29 10° NE
Meteor 2-4 Rocket 4.3 17:24:27 10° S 17:30:04 61° ESE 17:35:28 10° NNE
Meteor 1-29 3.7 17:30:11 10° NNW 17:32:55 26° W 17:35:42 10° SW
Tiangong -2.0 17:30:35 16° W 17:32:59 62° NNW 17:36:07 10° ENE
OAO 2 Rocket 4.1 17:29:06 14° WNW 17:33:08 39° NNW 17:37:52 10° NE
USA 290 2.5 17:31:35 10° SSW 17:34:47 44° WNW 17:37:54 10° N
Meteor 1-19 Rocket 4.2 17:29:54 10° SSW 17:35:17 57° W 17:40:41 10° N
Okean 3 Rocket 3.9 17:31:13 10° NNW 17:35:32 46° WSW 17:39:56 10° S
Cosmos 1697 Rocket 3.7 17:33:18 10° SW 17:37:45 24° W 17:42:10 10° NNW
Okean 1 3.4 17:33:55 10° SSW 17:37:46 51° W 17:41:33 10° N
Cosmos 1666 3.9 17:35:50 10° NW 17:38:43 21° WSW 17:41:39 10° SSW
BREEZE-M R/B 4.4 17:32:07 10° WSW 17:40:08 38° NW 17:44:16 10° NNE
Cosmos 1939 Rocket 4.2 17:38:16 10° NW 17:41:24 21° W 17:44:33 10° SW
Meteor 1-31 Rocket 3.0 17:41:44 10° N 17:45:22 47° W 17:49:06 10° SSW
Cosmos 614 Rocket 4.2 17:43:57 10° SSW 17:49:15 83° ESE 17:54:27 10° NNE
Meteor 1-18 Rocket 4.2 17:43:42 10° S 17:49:25 86° W 17:55:00 10° N
USA 32 4.2 17:44:39 10° N 17:49:55 82° E 17:55:16 10° S
Meteor 1-5 Rocket 4.4 17:46:35 10° NNW 17:52:36 78° W 17:58:38 10° S
Cosmos 1821 Rocket 4.1 17:46:55 10° S 17:53:17 74° W 17:59:38 10° N
Cosmos 1408 Rocket 3.7 17:49:33 10° NNW 17:53:51 53° W 17:58:11 10° S
Cosmos 1980 Rocket 2.8 17:49:20 10° SW 17:54:29 36° WNW 17:59:37 10° N
ARGOS 3.3 17:51:28 10° N 17:56:45 56° W 18:02:05 10° SSW
